User: anonymous   Login
Location: Chevoux
(46.3801°N, 4.9476°E)
Time: 08:24:57
(UTC+00:00)
Language:

Meteor 1-21 Rocket - Orbit

View from above orbital plane
View from above orbital plane
View from above satellite
View from above satellite

Ground track
Ground track

The orbit data is extracted from the following two-line orbital elements,

1 07715U 75023B   21101.76281176  .00000074  00000-0  36254-4 0  9995
2 07715  81.2195 316.6347 0050949 169.0302 191.1992 14.06795637361466
Epoch (UTC): 11 April 2021 18:18:26
Eccentricity: 0.0050949
inclination: 81.2195°
perigee height: 833 km
apogee height: 907 km
right ascension of ascending node: 316.6347°
argument of perigee: 169.0302°
revolutions per day: 14.06795637
mean anomaly at epoch: 191.1992°
orbit number at epoch: 36146

The dashed part of the orbit path shows where the satellite is in the earth's shadow,  

DLR